Hourly Data Report for May 21, 2020

All times are specified in Local Standard Time (LST). Add 1 hour to adjust for Daylight Saving Time where and when it is observed.

OTTAWA INTL A
ONTARIO
Current Station Operator: NAVCAN

45°19'00.000" N
75°40'00.000" W
114.90 m
6106001
71628
YOW

Download Data

Hourly Data (May 2020)
Hourly Data Report for May 21, 2020
TIME Temp Definition
°C
Dew Point Definition
°C
Rel Hum Definition
%
Wind Dir Definition
10's deg

Wind Spd Definition
km/h
Visibility Definition
km
Stn Press Definition
kPa
Hmdx Definition


Wind Chill Definition


Weather Definition


00:00 12.5 3.0 52 20 8 24.1 101.23     LegendNANA
01:00 10.6 2.6 58 25 3 24.1 101.22     Clear
02:00 10.4 3.4 62 36 3 24.1 101.23     LegendNANA
03:00 10.0 3.5 64 19 9 24.1 101.26     LegendNANA
04:00 10.6 3.1 60 18 9 24.1 101.28     Mainly Clear
05:00 10.4 3.3 61 19 9 24.1 101.30     LegendNANA
06:00 12.4 4.0 56 23 13 24.1 101.36     LegendNANA
07:00 14.9 3.5 46 23 17 24.1 101.38     Mostly Cloudy
08:00 17.6 1.7 34 24 24 24.1 101.38     LegendNANA
09:00 19.5 1.4 30 22 21 24.1 101.34     LegendNANA
10:00 20.8 0.5 25 23 18 24.1 101.28     Mostly Cloudy
11:00 21.6 0.5 24 24 21 24.1 101.19     LegendNANA
12:00 22.4 1.4 25 22 16 24.1 101.10     LegendNANA
13:00 23.5 -3.6 16 20 16 24.1 101.04     Mostly Cloudy
14:00 24.0 -4.0 15 22 22 24.1 100.96     LegendNANA
15:00 24.8 -1.8 17 24 20 24.1 100.87     LegendNANA
16:00 24.4 -7.3 11 21 22 24.1 100.79     Mainly Clear
17:00 23.9 -7.7 11 21 19 24.1 100.70     LegendNANA
18:00 22.7 -8.1 12 22 20 24.1 100.63     LegendNANA
19:00 20.1 -6.8 15 20 11 24.1 100.61     Mainly Clear
20:00 17.1 -5.8 20 19 10 24.1 100.59     LegendNANA
21:00 16.1 -5.5 22 19 9 24.1 100.61     LegendNANA
22:00 14.6 -3.8 28 21 9 24.1 100.60     Clear
23:00 13.7 -3.9 29 23 10 24.1 100.61     LegendNANA

Notes on Data Quality.

Legend

  • E = Estimated
  • M = Missing
  • NA = Not Available*
  • [empty] = Indicates an unobserved value
Date modified: